User: anonymous
Location: Broad Creek
(39.7000°N, 76.2570°W)
Time: 18:07:23
(UTC-04:00)
Language:

ETS-7 - Orbit

View from above orbital plane
View from above orbital plane
View from above satellite
View from above satellite

Ground track
Ground track

The orbit data is extracted from the following two-line orbital elements,

1 25064U 97074B   14241.13056861  .00015588  00000-0  26380-3 0  2369
2 25064 034.9621 150.3586 0003273 357.2842 141.9784 15.50644696932495
Epoch (UTC): 29 August 2014 03:08:01
Eccentricity: 0.0003273
inclination: 34.9621°
perigee height: 412 km
apogee height: 417 km
right ascension of ascending node: 150.3586°
argument of perigee: 357.2842°
revolutions per day: 15.50644696
mean anomaly at epoch: 141.9784°
orbit number at epoch: 93249

The dashed part of the orbit path shows where the satellite is in the earth's shadow,  

DLR